+ View the NASA Portal
+ Center for Near-Earth Object Studies
IMPORTANT:
The SSD Announcement email list is now available. Major changes are coming in the near future, including possible hostname and/or URL changes. To be notified of such changes, subscribe to this email list.
Please visit
this page
for more details.
Don't show this message again
JPL Small-Body Database Browser
Search:
[
help
]
277974 (2006 TJ37)
Classification:
Main-belt Asteroid
SPK-ID:
2277974
[
Ephemeris
|
Orbit Diagram
|
Orbital Elements
|
Mission Design
|
Physical Parameters
|
Discovery Circumstances
|
Close-Approach Data
]
[ show orbit diagram ]
Orbital Elements at Epoch 2458600.5 (2019-Apr-27.0) TDB
Reference:
JPL 12
(heliocentric ecliptic J2000)
Element
Value
Uncertainty (1-sigma)
Units
e
.06645381157064074
6.7666e-08
a
2.190519975587378
1.9905e-08
au
q
2.04495157388797
1.5688e-07
au
i
.9687946916153791
4.9334e-06
deg
node
243.2989972961345
0.00042607
deg
peri
271.6467032193348
0.00042821
deg
M
200.8902180431626
4.8369e-05
deg
t
p
2459123.875794959561
(2020-Oct-01.37579496)
0.00016337
TDB
period
1184.184176913487
3.24
1.6141e-05
4.419e-08
d
yr
n
.3040067643348526
4.1438e-09
deg/d
Q
2.336088377286786
2.1228e-08
au
Orbit Determination Parameters
# obs. used (total)
154
data-arc span
4772 days (13.07 yr)
first obs. used
2006-10-12
last obs. used
2019-11-05
planetary ephem.
DE431
SB-pert. ephem.
SB431-N16
condition code
0
norm. resid. RMS
.60103
source
ORB
producer
Otto Matic
solution date
2019-Dec-04 20:12:18
Additional Information
Earth MOID
= 1.05523 au
Jupiter MOID
= 2.64357 au
T_jup
= 3.670
[ show covariance matrix ]
[
Ephemeris
|
Orbit Diagram
|
Orbital Elements
|
Mission Design
|
Physical Parameters
|
Discovery Circumstances
|
Close-Approach Data
]
Physical Parameter Table
Parameter
Symbol
Value
Units
Sigma
Reference
Notes
absolute magnitude
H
18.1
n/a
MPO291753
277974 (2006 TJ37)
Discovered 2006-Oct-12 by Spacewatch at Kitt Peak
Reference:
20110517/Numbers.arc
Last Updated:
2011-05-20
[ show close-approach data ]
[
Ephemeris
|
Orbit Diagram
|
Orbital Elements
|
Mission Design
|
Physical Parameters
|
Discovery Circumstances
|
Close-Approach Data
]
2019-Dec-10 13:44 UT
(server date/time)
Site Manager:
Ryan S. Park
Webmaster
:
Alan B. Chamberlin